Flag for U.S.A. Weather past 2 weeks in Oberlin, Ohio, U.S.A.

Now
72 °F

Fog.


Feels Like: 70 °F
Forecast: 68 / 82 °F
Wind: 3 mph from Northwest

Location: Lorain County Regional Airport

Current Time: Aug 23, 2014 at 3:47:19 AM

Latest Report: Aug 23, 2014 at 2:53 AM


Visibility: 3 mi

Pressure: 29.97 "Hg

Humidity: 87%

Dew point: 68 °F

Location of OberlinLocation

Historic Weather in Oberlin — Graph

°F

Oberlin temperature yesterday

Maximum temperature yesterday: 85 °F (at 1:00 PM)
Minimum temperature yesterday: 70 °F (at 5:53 AM)
Average temperature yesterday: 77 °F

Past Weeks' High & Low Weather Summary

 TemperatureHumidityPressure
High88 °F (Aug 10, 2:53 PM)90% (Aug 9, 2:53 AM)30.15 "Hg (Aug 9, 2:53 AM)
Low52 °F (Aug 15, 6:53 AM)34% (Aug 15, 3:53 PM)29.70 "Hg (Aug 12, 3:53 PM)
Average71 °F71%29.95 "Hg
* Reported Aug 8 2:53 AM — Aug 23 2:53 AM, Oberlin, Weather by CustomWeather, © 2014

Note: Actual official high and low records may vary slightly from our data, if they occured in-between our weather recording intervals... More about our weather records

Advertising

Oberlin weather history for previous 24 hours

 ConditionsComfort  
Time TempWeatherWind HumidityBarometerVisibility
2:53 AM
Aug 23
72 °FFog.3 mph87%29.97 "Hg3 mi
1:53 AM72 °FFog.3 mph87%29.99 "Hg3 mi
12:53 AM72 °FOvercast.No wind84%30.00 "Hg3 mi
11:53 PM
Aug 22
71 °FFog.3 mph87%30.00 "Hg3 mi
10:53 PM73 °FClear.No wind81%29.99 "Hg5 mi
9:53 PM74 °FClear.3 mph82%29.98 "Hg7 mi
8:53 PM75 °FSunny.5 mph82%29.96 "Hg8 mi
7:53 PM78 °FSunny.5 mph74%29.95 "Hg7 mi
6:53 PM82 °FSunny.9 mph65%29.95 "Hg10 mi
5:53 PM83 °FSunny.8 mph65%29.95 "Hg10 mi
4:53 PM84 °FSunny.9 mph65%29.93 "Hg10 mi
3:53 PM84 °FScattered clouds.8 mph67%29.94 "Hg9 mi
3:01 PM85 °FScattered clouds.8 mph68%29.97 "Hg9 mi
2:04 PM83 °FBroken clouds.7 mph72%29.97 "Hg8 mi
1:53 PM83 °FPartly sunny.8 mph72%29.95 "Hg9 mi
1:00 PM85 °FBroken clouds.3 mph63%29.98 "Hg10 mi
11:53 AM83 °FSunny.No wind65%29.96 "Hg10 mi
10:53 AM81 °FBroken clouds.No wind72%29.97 "Hg9 mi
9:53 AM79 °FScattered clouds.5 mph77%29.98 "Hg9 mi
8:53 AM76 °FOvercast.No wind82%29.98 "Hg8 mi
8:02 AM73 °FCloudy.No wind88%30.01 "Hg7 mi
7:53 AM73 °FMostly cloudy.5 mph84%29.99 "Hg7 mi
6:53 AM70 °FFog.3 mph87%29.97 "Hg6 mi
5:53 AM70 °FClear.5 mph87%29.96 "Hg10 mi
4:53 AM72 °FPartly cloudy.5 mph84%29.94 "Hg10 mi
3:53 AM72 °FPassing clouds.3 mph84%29.95 "Hg10 mi
Weather by CustomWeather, © 2014

See weather overviewHow to use our weather pages